Wind_Speed
12 13 14 16 17 19 20 23 25 28 30 32 35 38 41 44 46 48 51 54 56 56 56 56 56 56 56 57 57 57 57 57 55 54 52 50 48 46 44 43 42 42 42 42
13 14 15 16 18 20 22 24 27 29 31 34 37 41 44 46 49 51 54 55 55 55 56 56 56 55 55 55 56 57 57 56 55 54 52 50 49 47 45 42 41 40 40 39
14 15 16 18 20 22 24 26 29 32 34 37 39 42 46 49 51 54 56 55 55 55 55 55 56 56 56 56 57 57 57 56 55 54 53 51 49 48 46 44 42 40 38 37
16 17 18 20 22 24 26 28 31 34 37 39 42 44 47 51 54 55 55 54 54 55 55 55 56 56 56 57 57 57 56 55 55 53 52 49 48 46 44 42 41 39 38 37
17 19 21 23 25 27 29 30 33 36 39 41 44 45 47 51 53 54 54 53 54 55 56 56 56 56 57 57 57 56 55 53 51 49 48 46 45 43 41 40 39 38 37 36
19 21 24 25 27 29 32 33 36 39 41 44 47 49 49 51 53 53 53 54 55 56 56 56 56 56 56 56 55 54 52 50 49 47 45 43 41 39 38 38 37 35 34 34
21 23 24 26 28 30 33 36 38 40 42 45 49 51 53 54 54 54 54 54 55 55 56 56 56 56 55 54 53 51 49 48 46 43 42 39 37 35 35 34 33 32 32 32
22 24 26 27 29 31 33 36 38 41 43 46 49 51 52 53 53 53 53 54 55 55 55 55 55 55 54 52 50 48 47 45 42 39 36 33 31 30 30 29 29 29 30 31
24 25 26 28 29 31 33 36 39 42 44 47 49 51 52 53 53 53 53 54 54 54 54 54 54 53 53 51 48 46 44 41 38 34 31 28 25 24 24 25 26 26 26 27
24 25 26 27 29 31 34 37 40 43 46 48 50 51 52 53 53 53 53 53 54 53 53 53 53 52 51 49 47 44 41 38 34 30 27 23 21 19 18 19 21 23 23 24
23 25 26 27 29 32 35 38 41 43 47 49 50 51 53 53 53 53 52 53 53 53 53 53 52 50 49 47 45 42 40 36 32 28 25 20 17 14 13 14 16 18 19 20
24 26 27 29 30 33 36 38 41 44 46 49 50 51 52 52 53 53 52 52 52 52 52 52 51 49 47 46 43 41 38 35 30 26 23 19 14 11 9 10 12 14 16 17
25 26 28 29 31 33 36 38 41 44 47 49 50 51 52 52 53 53 52 51 50 51 51 50 50 48 46 45 42 40 37 33 29 26 23 18 14 9 5 4 7 10 13 15
25 27 28 29 31 33 36 38 41 44 47 49 50 51 52 52 52 51 50 49 49 50 50 49 49 47 45 44 42 38 35 32 29 26 23 20 15 10 6 2 3 6 9 11
26 27 28 30 31 33 36 38 41 44 46 48 49 50 51 52 51 50 49 47 47 48 48 47 47 45 44 42 41 38 35 32 29 26 23 20 17 13 10 6 5 5 6 7
26 27 29 30 32 34 36 39 41 44 46 48 49 49 51 51 51 50 48 46 45 45 46 45 45 44 42 41 39 38 36 32 29 27 24 21 18 15 12 10 9 8 7 7
27 28 29 31 33 34 37 39 42 44 47 48 49 49 50 51 49 47 45 44 43 44 44 43 43 42 41 39 38 37 35 33 30 28 26 23 20 18 16 14 12 11 10 9
28 30 31 32 34 35 38 40 42 44 47 48 49 50 50 50 48 46 43 42 41 41 41 41 40 39 39 38 37 35 33 32 30 28 26 23 21 20 18 17 15 15 13 12
30 31 32 33 35 36 38 40 42 44 46 48 48 49 49 49 48 45 42 40 38 37 37 37 37 37 36 36 35 34 33 31 30 28 26 24 22 21 20 19 17 16 16 15
32 33 34 35 36 37 38 40 42 44 46 47 47 48 48 47 46 44 41 39 37 36 35 35 34 34 33 33 33 33 32 31 29 28 26 23 21 20 20 19 18 18 18 18
34 35 36 36 37 38 39 41 42 44 46 47 47 47 47 46 45 43 40 37 35 33 32 32 31 30 30 30 30 30 30 29 29 28 26 24 22 21 20 20 19 19 20 21
36 37 37 38 38 39 40 41 42 44 45 46 46 46 45 44 43 41 39 36 33 31 30 29 28 27 26 26 26 27 27 27 26 26 26 24 23 21 21 21 21 21 21 22
38 38 38 39 39 40 41 41 43 44 45 45 45 45 44 43 41 38 37 34 32 29 27 26 25 24 23 23 23 23 23 23 23 23 23 23 22 21 21 21 22 22 22 23
40 39 39 40 40 40 41 42 43 45 45 45 44 43 42 41 39 37 35 33 31 28 25 23 23 21 20 20 20 20 20 20 21 21 21 21 20 20 20 20 21 21 21 22
42 42 41 41 40 41 42 43 44 44 44 44 43 42 40 39 37 36 34 31 29 27 24 21 20 19 17 16 17 17 17 17 17 18 18 18 18 18 19 19 19 20 20 21
43 42 42 41 41 42 42 43 44 44 42 41 41 40 39 37 36 34 32 30 28 26 22 19 18 16 14 13 13 13 13 13 13 14 15 16 16 17 17 17 18 19 19 20
44 43 42 41 41 42 43 42 42 41 40 39 38 37 36 35 34 33 31 28 26 25 22 18 16 14 12 10 9 9 10 10 10 11 12 12 13 13 14 14 14 15 16 17
Wind_Direction
326 326 323 322 322 324 325 325 323 324 324 325 325 326 326 325 325 325 324 323 321 320 319 317 316 314 313 311 310 308 306 304 301 299 296 293 290 286 281 276 272 268 266 265
328 327 326 326 326 327 329 327 326 326 327 328 329 329 328 328 328 327 325 324 323 322 320 319 317 315 313 312 310 308 306 303 300 298 295 291 289 285 281 276 272 267 265 264
327 329 329 326 328 330 331 329 330 331 332 332 332 333 331 329 329 328 327 326 325 324 323 321 319 317 315 313 311 309 306 303 300 296 293 290 287 284 279 275 271 267 264 263
327 330 331 330 330 331 333 333 333 334 334 334 335 336 333 331 331 330 329 328 327 326 325 322 320 318 316 315 313 310 307 305 301 298 293 289 285 282 277 272 268 263 261 260
329 332 332 331 331 333 335 337 336 336 336 336 336 337 335 332 332 331 331 331 330 329 327 325 323 321 319 317 315 312 309 307 304 300 295 290 286 280 275 271 265 260 257 256
330 332 333 333 333 335 336 337 338 338 338 338 337 337 337 335 335 335 335 333 332 331 330 328 326 324 322 320 317 314 313 311 307 302 297 292 285 279 273 268 263 257 254 252
329 330 331 332 333 335 335 337 338 339 339 339 339 338 339 338 338 337 337 336 335 334 332 330 329 327 326 325 322 320 317 315 311 307 300 294 287 279 272 266 259 254 250 249
327 330 331 332 332 334 335 337 338 339 339 340 340 340 340 340 339 339 338 338 337 336 335 334 333 332 331 329 327 325 323 321 316 311 306 299 290 280 271 262 256 251 248 245
326 328 330 331 331 333 335 337 339 339 340 341 341 342 342 341 341 341 340 340 339 339 339 339 337 336 336 335 333 331 328 326 323 318 312 304 293 284 273 261 253 249 246 242
323 326 327 329 330 334 336 338 339 340 341 342 343 343 343 343 343 342 342 341 342 342 342 342 341 340 340 340 339 338 336 334 331 328 322 313 301 288 274 259 249 244 240 237
321 324 327 329 331 335 337 338 339 341 342 343 344 344 344 344 344 344 343 343 344 345 345 345 345 345 345 345 346 346 344 342 339 337 334 326 313 296 277 258 245 236 232 230
321 324 327 330 332 334 336 337 339 341 343 343 344 345 345 345 346 345 346 346 347 347 348 348 349 349 349 350 351 352 351 351 349 348 346 341 331 313 286 258 239 230 225 224
319 323 326 328 329 331 334 337 339 341 343 344 345 345 345 346 346 347 348 348 349 351 352 352 353 354 354 355 356 356 358 359 0 0 359 358 352 343 316 257 226 219 217 219
319 322 323 324 326 330 333 336 339 341 342 344 345 345 346 346 347 348 349 350 352 353 355 356 357 358 359 0 2 3 4 5 8 9 10 13 16 20 30 77 170 192 202 209
316 318 320 322 324 328 332 336 339 340 342 343 344 345 346 347 348 348 350 352 353 355 356 358 360 1 2 4 6 9 10 12 14 17 19 22 29 38 51 68 104 139 164 178
312 315 317 320 323 328 332 335 337 339 340 342 344 345 346 348 348 349 351 352 354 356 358 1 2 4 7 9 11 13 16 18 20 23 25 30 36 44 54 66 82 103 122 137
310 313 316 319 323 327 330 333 335 337 339 341 343 345 347 348 349 349 350 352 354 356 359 1 4 6 9 12 14 17 20 24 27 30 33 37 43 50 58 67 77 92 102 107
309 312 314 317 321 325 327 330 333 335 338 340 342 344 346 347 349 349 350 352 354 356 359 1 4 7 10 14 16 20 23 28 31 33 37 42 48 56 62 67 75 84 90 99
307 309 311 314 318 321 324 327 330 333 336 338 341 343 345 346 348 348 349 351 353 355 357 0 4 8 12 16 19 22 26 29 31 34 38 45 51 58 64 69 75 81 87 92
304 306 309 311 314 318 321 325 328 331 333 336 339 342 344 345 346 348 348 349 351 353 356 360 4 8 12 17 21 25 27 30 33 35 39 45 52 58 63 69 75 82 87 93
302 304 306 309 311 314 318 322 326 328 331 334 337 340 342 343 344 346 347 348 350 352 354 358 2 7 12 18 23 27 31 34 37 39 43 49 55 60 65 70 77 84 89 93
300 302 304 306 309 312 315 320 323 325 328 332 334 337 339 341 342 343 345 347 349 350 352 356 360 5 10 16 21 26 31 35 38 42 47 52 58 63 68 74 81 88 93 97
297 299 302 305 307 310 313 317 320 323 325 328 331 333 336 338 340 341 342 344 346 347 348 352 357 3 8 14 19 24 29 34 39 43 49 54 59 65 71 76 83 89 94 98
294 296 299 302 305 308 312 314 317 320 323 325 328 330 333 336 338 339 340 341 343 344 345 349 354 360 5 12 17 22 27 35 41 45 49 55 61 66 72 78 84 90 96 100
291 293 296 298 301 306 309 311 314 317 320 323 325 327 330 333 335 336 337 338 340 341 341 343 348 353 359 7 15 22 28 35 42 47 51 55 62 68 73 80 88 94 98 101
289 292 293 295 299 303 306 308 311 314 317 320 322 324 327 330 332 334 335 335 336 338 337 337 340 345 350 359 8 18 26 33 40 49 54 59 65 71 76 83 91 97 101 104
286 290 291 292 297 301 304 306 308 311 314 316 319 322 325 327 329 330 332 332 333 334 334 332 332 335 339 344 355 8 22 33 40 48 55 61 68 75 81 88 96 101 104 106
Height
5833 5831 5829 5826 5824 5821 5818 5814 5810 5806 5801 5796 5789 5782 5775 5766 5759 5750 5742 5732 5723 5713 5703 5694 5685 5676 5667 5658 5649 5641 5634 5627 5621 5616 5612 5609 5606 5604 5603 5602 5602 5602 5602 5602
5831 5829 5826 5824 5821 5818 5814 5810 5806 5801 5796 5790 5782 5774 5766 5757 5749 5740 5731 5721 5711 5701 5691 5681 5671 5662 5653 5644 5635 5626 5618 5611 5604 5599 5594 5591 5588 5586 5585 5584 5585 5585 5586 5587
5829 5826 5824 5821 5818 5814 5811 5806 5801 5795 5790 5783 5776 5768 5758 5749 5740 5730 5720 5709 5699 5689 5678 5668 5658 5648 5639 5629 5620 5611 5602 5594 5587 5581 5576 5573 5570 5568 5567 5567 5567 5569 5570 5572
5826 5825 5821 5820 5814 5810 5807 5802 5796 5790 5783 5776 5769 5761 5750 5740 5730 5720 5709 5699 5689 5678 5667 5656 5645 5635 5625 5615 5605 5595 5586 5577 5569 5562 5557 5554 5551 5549 5549 5549 5550 5552 5555 5557
5824 5820 5818 5815 5810 5805 5801 5797 5791 5784 5777 5769 5761 5755 5746 5734 5723 5712 5700 5689 5678 5667 5656 5645 5633 5622 5611 5601 5590 5579 5570 5560 5552 5545 5540 5536 5533 5532 5532 5532 5534 5537 5540 5543
5820 5817 5814 5811 5806 5800 5796 5791 5785 5777 5770 5762 5753 5745 5738 5726 5714 5702 5691 5680 5669 5657 5645 5633 5622 5610 5598 5587 5575 5565 5554 5545 5536 5529 5523 5519 5516 5516 5516 5517 5519 5522 5526 5529
5817 5814 5811 5807 5801 5797 5792 5787 5779 5771 5764 5756 5746 5737 5727 5716 5704 5693 5682 5671 5660 5648 5636 5623 5611 5598 5586 5574 5562 5551 5540 5531 5521 5514 5508 5503 5501 5500 5501 5502 5505 5509 5513 5517
5814 5810 5808 5802 5797 5793 5788 5781 5774 5767 5759 5750 5741 5731 5720 5709 5697 5686 5675 5664 5652 5640 5628 5614 5601 5588 5575 5563 5551 5540 5529 5519 5509 5502 5495 5491 5488 5487 5488 5490 5493 5497 5502 5506
5811 5808 5803 5798 5794 5789 5783 5777 5769 5762 5754 5745 5735 5724 5714 5703 5691 5680 5668 5657 5645 5633 5620 5607 5593 5579 5567 5554 5542 5530 5519 5509 5500 5492 5486 5481 5478 5477 5478 5480 5483 5488 5492 5497
5806 5803 5799 5795 5790 5784 5778 5772 5764 5756 5748 5738 5728 5718 5707 5696 5685 5674 5663 5651 5639 5627 5614 5601 5587 5573 5560 5547 5534 5523 5512 5502 5493 5486 5479 5475 5472 5470 5471 5473 5476 5480 5485 5489
5802 5799 5795 5790 5785 5780 5774 5767 5759 5751 5742 5733 5723 5713 5702 5691 5680 5669 5657 5646 5633 5621 5608 5595 5582 5568 5555 5542 5530 5518 5508 5498 5489 5482 5475 5470 5467 5466 5466 5468 5471 5475 5479 5484
5798 5794 5790 5786 5780 5775 5769 5762 5755 5747 5738 5728 5718 5708 5698 5687 5676 5664 5652 5641 5629 5617 5604 5591 5578 5565 5552 5539 5527 5516 5506 5496 5488 5480 5474 5469 5465 5464 5464 5465 5468 5471 5475 5480
5793 5789 5785 5781 5776 5771 5765 5758 5750 5742 5733 5724 5714 5704 5693 5682 5672 5660 5649 5637 5626 5613 5601 5588 5576 5563 5551 5538 5526 5516 5506 5496 5488 5481 5475 5469 5466 5464 5463 5464 5466 5469 5473 5477
5788 5785 5781 5777 5772 5766 5760 5753 5746 5737 5728 5719 5710 5700 5690 5679 5668 5657 5646 5635 5623 5611 5599 5587 5575 5563 5551 5539 5527 5517 5508 5499 5491 5484 5478 5473 5469 5466 5465 5466 5467 5469 5472 5475
5784 5780 5777 5772 5767 5762 5756 5749 5741 5733 5725 5716 5706 5697 5686 5676 5665 5654 5643 5632 5622 5611 5600 5588 5576 5564 5553 5541 5531 5520 5511 5503 5495 5489 5483 5478 5474 5471 5470 5470 5470 5472 5473 5476
5779 5776 5772 5767 5762 5757 5751 5744 5737 5729 5721 5712 5703 5693 5683 5672 5662 5651 5641 5631 5621 5611 5601 5590 5579 5567 5556 5546 5535 5526 5517 5509 5501 5495 5489 5484 5480 5477 5476 5475 5475 5475 5477 5478
5774 5770 5766 5762 5757 5751 5746 5739 5732 5725 5716 5708 5699 5689 5680 5670 5660 5650 5640 5630 5621 5611 5601 5591 5581 5571 5561 5551 5541 5532 5523 5515 5508 5502 5497 5492 5488 5485 5482 5481 5480 5481 5481 5482
5767 5764 5760 5756 5751 5746 5740 5734 5727 5720 5712 5703 5695 5685 5676 5667 5658 5648 5639 5630 5621 5612 5603 5594 5585 5575 5566 5556 5547 5539 5531 5523 5517 5510 5505 5500 5496 5493 5490 5489 5488 5487 5487 5487
5761 5758 5754 5750 5745 5740 5735 5729 5722 5715 5707 5699 5691 5682 5673 5664 5655 5646 5638 5630 5622 5614 5606 5597 5588 5580 5571 5562 5553 5545 5538 5531 5525 5519 5513 5509 5505 5502 5499 5497 5496 5495 5494 5494
5754 5751 5747 5743 5738 5734 5728 5723 5716 5709 5702 5695 5687 5679 5670 5662 5654 5645 5637 5629 5621 5614 5607 5599 5592 5584 5576 5568 5560 5552 5545 5539 5533 5527 5522 5517 5514 5511 5508 5506 5504 5503 5502 5502
5746 5743 5739 5735 5731 5726 5721 5716 5710 5704 5697 5690 5682 5675 5667 5659 5651 5643 5636 5629 5621 5614 5608 5601 5594 5588 5581 5573 5566 5559 5553 5547 5541 5536 5530 5526 5523 5520 5517 5515 5513 5512 5511 5511
5737 5734 5731 5727 5723 5719 5714 5709 5703 5697 5691 5685 5677 5670 5663 5656 5649 5641 5634 5627 5621 5614 5608 5602 5596 5590 5584 5578 5572 5566 5560 5555 5549 5544 5540 5535 5532 5529 5526 5524 5522 5521 5521 5521
5728 5725 5722 5718 5715 5711 5706 5701 5696 5691 5685 5679 5673 5666 5659 5653 5646 5639 5633 5626 5620 5614 5608 5603 5598 5592 5587 5582 5577 5572 5566 5561 5557 5552 5548 5545 5541 5538 5536 5534 5533 5532 5532 5532
5718 5715 5712 5709 5706 5702 5698 5693 5689 5684 5678 5673 5667 5661 5655 5648 5642 5635 5629 5623 5618 5613 5608 5603 5598 5594 5589 5585 5581 5576 5572 5568 5563 5560 5556 5553 5550 5548 5546 5544 5543 5542 5542 5542
5707 5705 5702 5699 5696 5693 5689 5685 5681 5676 5671 5666 5660 5655 5649 5644 5638 5632 5627 5621 5616 5611 5606 5602 5598 5595 5591 5587 5584 5580 5576 5573 5569 5566 5563 5560 5558 5556 5554 5553 5552 5551 5551 5552
5696 5694 5692 5690 5687 5684 5680 5676 5672 5668 5664 5659 5654 5649 5644 5639 5633 5628 5623 5618 5613 5609 5604 5601 5598 5594 5591 5589 5586 5583 5580 5577 5574 5572 5569 5567 5565 5563 5562 5561 5561 5560 5560 5561
5684 5683 5682 5680 5677 5674 5671 5667 5664 5660 5656 5652 5648 5643 5638 5634 5629 5624 5619 5615 5610 5606 5602 5599 5596 5593 5591 5589 5587 5584 5582 5580 5578 5576 5574 5572 5571 5570 5569 5568 5568 5568 5568 5569